Main page
METAR-TAF:

METAR-TAF

Airports :

Pine Ridge Airport

Pine Ridge, South Dakota, United States

latitude: 43-01-32N, longitude: 102-31-23W, elevation: 3329 ft

Current weather observation

The report was made 1 hour and 8 minutes ago, at 20:52 UTC
Wind 14 mph from the North with gusts up to 23 mph
Temperature 81°F
Humidity 39%
Pressure 30.08 in. Hg
Visibility: 10 miles
Clear sky

METAR: KIEN 022052Z AUTO 01012G20KT 10SM CLR 27/12 A3008 RMK AO2 SLP155 T02670117 50004

Time: 16:00 (22:00 UTC)


TAF: missing

Weather observations and forecasts of more than 4000 airports (METAR and TAF reports).

The available stations are represented by yellow and red dots on the map.

Hover mouse over dot to see the name of the station.

Then click to see weather observations and forecasts.

To change the map : click on the green buttons with a black cross to zoom in, on the green button with a dash to zoom out, or on the green arrows for adjacent maps.


METAR-TAF: